Theta_e
301 301 302 303 304 304 305 304 305 305 306 297 294 297 292 290 287 298 304 311 309 300 293 295 293 290 293 296 293 293 291 292 293 292 292 291 295 294 292 292 290 290 290 290 290 291 288 288 287 287 288 290 292 288 291 291 293 293 286 288 286 292 279 279 280 279 279 283 284 283 283 287 287 287 284 284 287 287 283 281 278 280 275 276 273 272 282
301 301 301 302 303 304 304 304 304 305 305 297 296 294 291 292 291 292 297 306 306 296 285 287 289 291 293 293 292 295 293 291 291 291 292 291 291 291 291 293 295 293 292 292 289 293 286 290 290 288 288 287 289 289 290 293 292 293 290 290 292 284 282 284 277 275 275 280 284 285 286 285 283 285 286 286 287 287 280 277 274 276 279 282 279 277 283
302 302 301 302 303 304 303 304 304 304 305 302 298 291 294 293 294 291 293 302 302 289 293 290 289 290 290 290 290 291 292 294 295 293 292 294 291 291 290 293 293 293 293 292 293 294 292 287 291 292 287 290 287 288 290 293 292 294 293 296 296 290 287 285 280 278 276 274 276 278 282 283 284 281 281 286 288 285 283 283 278 279 279 280 279 282 288
302 302 302 303 303 303 303 303 303 304 304 304 298 293 292 287 280 288 289 293 295 293 295 291 291 289 289 288 290 292 290 293 295 296 294 295 294 294 293 292 295 293 292 290 290 291 294 291 287 288 287 287 287 287 288 292 293 295 296 294 295 287 288 289 287 285 282 284 285 285 285 282 282 284 286 285 287 288 288 284 279 281 285 283 283 286 288
302 302 302 302 302 302 303 303 303 303 304 304 298 294 290 290 283 286 281 291 290 288 290 290 291 287 292 285 290 288 290 292 292 297 291 295 294 292 293 290 290 290 291 290 290 292 291 292 290 289 287 285 287 287 288 291 293 295 294 295 291 285 287 289 289 288 289 289 289 286 289 286 287 286 285 287 286 286 286 286 284 288 284 281 287 287 285
302 302 302 302 302 302 302 303 303 303 303 303 297 289 291 282 285 286 287 285 281 283 283 288 289 291 292 288 290 287 288 289 287 293 295 296 295 290 291 292 293 292 290 291 287 290 290 290 288 291 290 289 288 290 289 290 293 293 293 294 293 287 287 290 290 288 289 290 289 285 286 287 287 287 287 286 286 285 285 286 289 288 285 283 288 288 286
302 302 302 302 302 302 302 302 302 303 302 302 296 287 291 289 287 286 289 284 287 285 285 285 286 287 289 289 291 287 287 286 289 289 290 293 291 294 287 290 292 292 293 291 288 290 285 286 290 289 288 288 289 287 288 291 291 292 292 292 290 289 288 289 290 288 289 289 289 285 285 285 284 285 287 287 286 285 287 288 290 289 288 289 290 289 288
302 301 301 301 302 301 302 302 302 302 302 300 293 290 287 285 285 283 287 285 282 283 285 288 289 285 287 284 286 288 288 287 289 290 290 286 290 295 290 291 292 292 292 292 289 291 292 291 288 291 291 289 289 289 291 288 288 291 290 292 291 289 287 292 288 286 287 289 289 287 284 285 284 283 283 285 286 287 287 288 289 289 288 289 289 289 288
301 301 301 301 301 301 301 301 302 301 303 292 292 290 291 291 291 291 285 282 282 283 282 282 284 284 287 284 286 287 288 288 291 290 294 291 289 292 290 293 292 292 292 292 292 294 294 294 294 294 293 289 293 291 287 294 287 288 288 290 288 289 285 287 288 285 285 289 288 288 284 283 283 283 283 284 284 284 286 286 288 287 286 288 288 286 288
301 301 301 301 301 301 301 301 301 301 301 293 293 288 293 291 293 293 288 282 286 280 282 282 282 280 285 287 288 286 286 289 291 287 292 294 294 294 294 294 292 291 291 290 292 295 296 296 297 298 298 298 295 295 294 294 291 287 288 288 287 288 286 286 286 284 284 288 289 286 282 283 283 284 286 287 287 288 288 288 289 289 291 287 285 287 293
301 301 301 301 301 301 301 301 301 301 299 292 291 290 291 289 288 289 289 281 283 283 283 280 281 282 284 286 287 290 289 288 289 286 287 293 292 295 295 293 290 289 290 293 297 298 298 299 298 297 297 297 296 294 294 294 294 292 290 288 287 288 288 286 287 283 285 287 287 283 283 278 281 292 294 292 288 288 286 286 288 290 291 289 292 293 294
302 301 301 301 301 301 300 301 301 301 300 295 295 291 290 290 288 288 285 279 281 285 283 281 282 282 283 284 286 287 288 289 289 291 287 290 291 290 291 293 293 287 294 296 297 297 297 296 296 296 295 295 296 296 296 294 294 294 295 292 287 288 287 286 286 284 284 286 284 281 277 280 291 295 295 295 293 292 289 290 291 291 291 291 291 292 293
302 301 301 301 301 301 301 300 300 301 301 296 295 290 293 292 287 285 284 281 278 281 281 282 284 283 281 281 282 283 286 287 289 290 290 289 288 291 292 292 290 294 298 297 297 295 291 288 290 291 291 292 292 293 294 294 294 295 294 296 291 286 286 286 284 286 286 283 283 277 279 287 287 288 291 290 292 292 291 288 291 292 292 291 291 293 294
301 301 301 301 301 301 302 302 300 300 301 299 294 294 294 292 288 286 284 279 279 283 283 283 282 281 282 282 282 283 284 283 285 287 286 291 289 290 291 292 293 294 294 298 295 293 287 288 285 286 286 287 287 287 289 292 294 294 293 294 296 291 288 287 284 288 281 284 283 283 288 287 288 289 288 290 289 288 287 285 288 292 293 292 291 293 294
300 301 301 300 300 300 301 301 301 301 301 300 295 294 294 293 292 288 288 284 278 281 283 278 280 281 282 280 282 281 281 281 282 284 287 290 289 290 292 292 291 293 295 294 289 290 287 286 282 281 283 283 279 281 289 286 290 293 294 294 295 294 288 288 285 283 287 283 282 283 282 279 285 292 294 292 294 292 291 290 289 294 293 294 293 292 294
300 301 300 300 301 301 301 301 299 300 300 301 296 295 295 295 294 291 287 284 282 276 280 285 285 282 281 281 283 281 281 279 279 280 283 283 286 288 289 288 288 292 293 293 289 287 286 284 282 282 279 282 286 285 281 287 287 287 292 292 293 293 294 290 286 285 284 283 281 281 280 283 290 291 290 290 291 291 289 288 286 294 295 294 293 293 294
300 301 300 299 300 301 300 300 301 301 300 300 294 295 293 297 294 290 286 282 282 278 285 284 286 285 282 278 279 280 281 281 281 280 279 281 282 284 286 286 288 291 292 290 287 286 284 283 284 284 286 286 283 281 287 285 280 282 286 289 289 288 289 288 285 283 285 284 282 280 285 285 289 289 286 288 290 292 290 281 283 295 296 292 292 292 293
300 301 300 299 300 300 300 301 300 299 300 301 296 293 293 297 295 293 287 285 282 281 284 285 283 282 282 283 281 282 282 278 278 278 279 280 280 281 281 285 286 288 292 287 286 285 283 283 280 281 281 287 285 287 279 283 282 282 283 285 284 285 286 287 283 284 285 285 283 286 285 288 290 289 284 286 292 292 285 280 290 292 291 291 293 292 294
301 300 299 299 300 299 299 300 299 300 300 300 296 294 292 295 295 294 290 286 284 279 286 288 289 286 287 287 282 283 282 285 283 281 277 280 279 283 282 281 287 284 288 286 287 284 282 282 286 284 282 284 285 280 287 285 282 285 285 283 284 285 286 286 287 284 283 285 283 283 287 289 291 286 287 290 290 283 284 292 287 287 286 290 292 292 293
299 300 300 300 299 299 299 299 300 299 299 300 297 290 293 295 295 294 290 284 285 283 286 285 287 284 287 285 283 283 282 282 280 281 280 279 280 282 283 282 284 284 284 286 282 285 283 280 283 286 283 284 285 286 285 286 289 284 281 287 285 285 285 283 284 286 287 285 283 282 279 288 295 290 286 288 289 290 294 286 283 283 288 289 290 292 293
299 300 300 300 300 299 299 299 299 299 299 299 298 292 289 294 295 295 295 291 285 282 284 289 288 288 287 286 288 288 286 283 282 280 283 284 284 283 276 279 285 285 281 285 279 282 282 281 284 282 284 285 284 285 280 285 287 286 287 286 286 290 285 283 286 289 283 283 281 282 289 294 293 294 289 290 294 292 289 290 290 282 282 288 290 290 292
300 299 299 299 300 299 299 299 299 298 299 299 298 293 289 292 294 294 294 294 288 284 286 286 285 285 287 288 289 289 289 289 289 289 285 281 281 285 283 281 280 281 283 283 280 280 282 283 286 282 281 282 286 282 284 280 278 283 282 285 284 290 288 288 285 290 287 286 289 291 287 290 293 296 296 295 296 285 286 288 292 289 285 284 286 291 289
299 299 299 299 299 299 299 299 299 299 299 299 297 291 290 292 290 294 292 286 289 290 289 286 287 287 288 289 289 289 289 290 289 288 289 286 280 280 282 282 282 285 283 283 282 282 282 282 281 285 283 282 282 282 284 282 280 283 282 285 283 285 284 285 285 285 290 291 285 285 283 284 287 288 282 282 285 284 283 286 288 286 286 285 288 288 286
299 299 299 299 299 298 299 299 299 298 299 299 297 291 291 292 291 290 288 289 286 283 286 287 285 282 284 285 289 288 289 288 290 291 289 289 282 278 282 283 286 283 281 284 286 285 284 283 282 282 280 283 284 280 278 278 280 284 284 284 285 285 285 285 283 285 286 284 289 289 286 284 284 286 285 282 281 281 281 282 283 284 283 284 282 283 284
299 299 299 299 299 298 298 298 298 298 299 298 297 295 291 289 290 291 286 281 282 282 277 281 283 288 288 288 288 284 287 290 292 292 289 290 289 285 282 283 286 285 283 285 285 285 285 282 283 282 280 285 285 280 286 281 281 286 281 283 284 284 287 286 285 285 283 284 285 284 284 284 285 283 283 283 283 283 281 280 279 280 281 281 281 281 281
298 298 298 298 298 298 298 298 297 298 298 298 296 290 289 290 292 292 289 287 280 281 278 277 279 284 281 284 285 286 287 290 290 289 289 289 290 290 288 286 284 285 284 284 285 285 284 284 284 284 282 282 288 283 283 285 285 285 283 284 287 286 287 282 285 284 286 288 288 285 283 285 285 283 283 283 283 283 283 281 281 281 281 281 281 280 280
298 298 298 298 297 298 298 298 298 298 297 297 295 292 292 290 292 291 287 285 281 276 278 276 277 279 280 282 285 284 287 289 289 289 288 289 289 289 288 286 284 285 285 285 286 286 286 284 284 281 285 284 286 283 285 284 284 283 282 285 285 285 284 285 285 282 283 284 286 285 285 284 286 285 286 286 285 284 283 282 282 283 283 283 283 281 281
297 298 298 298 297 297 297 297 297 297 297 297 294 290 291 289 290 293 291 289 285 275 275 273 270 276 281 280 283 283 283 288 289 288 288 288 288 287 287 287 286 285 285 285 281 282 282 282 281 286 286 284 284 283 285 285 284 282 283 285 285 285 286 286 284 284 283 288 288 288 290 289 290 290 287 288 287 286 285 284 285 284 284 284 284 283 283
297 298 297 297 297 297 297 297 297 298 299 297 289 287 285 287 288 293 292 290 287 276 275 277 277 272 274 278 281 281 284 286 286 287 286 285 285 285 286 287 286 287 286 286 285 285 283 283 286 283 282 285 284 282 285 280 281 280 285 287 285 286 288 289 289 289 290 291 290 288 289 289 291 287 286 286 286 287 287 287 286 285 285 284 284 285 286
296 296 297 297 297 297 297 297 297 297 297 287 285 282 282 284 289 289 292 289 287 282 277 278 273 275 276 278 277 279 281 284 284 284 284 283 283 284 286 286 286 288 286 285 285 281 284 284 284 284 283 285 283 283 282 280 282 283 287 287 287 287 287 289 290 289 289 290 286 287 288 290 285 282 282 284 285 286 288 288 286 284 284 284 284 284 284
297 296 296 296 296 296 296 297 298 298 293 286 284 278 279 276 284 291 294 290 288 285 281 281 275 279 271 274 278 278 280 283 283 284 284 284 284 284 285 286 286 287 283 285 284 284 286 280 283 283 283 284 287 281 280 280 279 279 284 286 287 286 287 288 289 290 291 285 282 282 281 282 281 284 285 284 284 285 285 285 284 283 283 282 282 281 282
295 296 296 297 296 296 296 296 296 296 287 285 282 281 280 282 286 291 295 292 289 285 280 276 276 273 270 274 273 280 281 281 282 282 283 285 282 283 282 286 283 287 287 284 285 284 282 285 284 283 281 286 288 278 282 281 280 281 285 284 280 284 287 288 288 285 283 284 285 287 285 285 281 286 287 285 284 284 285 284 282 282 281 280 278 278 278
296 296 296 296 296 296 296 297 297 291 286 290 296 294 294 295 295 296 295 289 284 279 279 274 271 273 268 266 268 273 280 281 280 281 278 283 280 283 282 285 286 285 290 286 282 280 284 284 285 282 284 285 280 279 281 281 282 285 286 283 280 280 283 282 283 283 283 284 286 288 287 287 285 286 285 283 282 283 281 280 279 278 278 278 278 279 278
296 296 296 296 295 296 296 296 296 294 292 286 281 284 286 295 296 296 292 288 283 281 275 273 273 269 269 268 266 272 282 278 277 281 276 280 280 282 281 284 285 282 285 282 284 284 279 279 277 281 282 278 281 280 277 281 284 285 286 283 279 277 277 280 281 282 283 284 279 279 281 280 280 279 279 280 280 279 279 278 278 279 279 279 279 278 277
294 294 295 295 295 295 296 295 288 285 282 283 284 284 287 297 296 295 292 286 278 277 277 272 272 266 266 262 266 269 275 277 276 280 276 275 283 281 283 279 283 279 281 287 279 279 280 279 281 277 276 282 280 276 280 283 283 284 284 284 279 278 279 281 282 283 283 283 279 278 279 279 281 281 281 282 281 279 279 278 280 281 280 279 278 277 277
294 294 294 295 294 294 287 286 283 283 281 281 283 290 295 296 296 290 284 281 280 277 276 275 274 268 266 263 262 266 279 274 275 274 275 277 279 284 282 280 275 280 284 281 278 282 278 280 277 276 283 279 276 281 282 284 284 284 284 284 283 281 284 286 286 283 279 277 277 277 279 279 281 281 280 282 281 279 280 279 278 280 281 279 277 277 277
295 295 294 290 284 281 282 282 285 284 282 287 290 294 292 290 287 287 285 281 279 280 274 272 269 268 271 267 265 265 274 268 276 275 278 277 276 279 278 277 275 281 271 274 276 278 281 284 280 278 279 277 279 283 284 285 284 284 282 282 282 281 282 280 281 280 277 276 276 275 273 277 277 277 279 279 280 279 279 279 279 280 280 279 277 276 277
295 293 284 282 281 277 276 280 280 283 294 293 292 286 281 281 279 281 281 278 282 282 274 272 269 268 267 268 269 275 274 267 274 273 274 277 274 271 277 277 276 278 269 274 276 283 274 273 275 277 278 282 282 276 267 266 264 263 263 262 263 265 267 272 277 279 278 277 276 275 275 276 276 277 278 279 278 278 281 283 281 280 280 280 278 278 276
290 283 279 280 280 276 275 276 288 294 290 286 281 277 275 274 273 272 274 278 278 273 278 275 270 270 269 268 266 276 274 267 268 268 266 273 273 270 276 271 277 277 271 271 272 282 273 272 272 273 276 277 279 269 262 263 261 261 260 260 260 261 262 263 265 267 274 277 276 278 280 282 282 281 278 278 276 275 276 277 279 277 278 277 275 274 274
280 280 279 278 275 277 284 288 295 289 285 278 275 275 270 272 274 269 275 271 271 274 277 272 276 272 274 273 271 270 279 271 268 265 266 268 277 269 272 268 273 275 268 270 271 276 273 271 272 273 273 279 275 260 259 260 259 258 259 259 260 260 261 260 261 261 260 264 266 265 263 263 267 276 279 277 276 275 272 271 273 274 274 275 274 274 274
279 278 277 276 278 280 280 280 277 274 274 274 273 271 270 268 267 267 271 268 267 266 267 269 272 270 273 272 270 271 275 277 270 266 268 267 274 275 268 268 278 268 268 269 273 266 268 265 267 270 275 264 256 257 256 256 257 256 257 258 259 260 260 260 260 259 257 258 259 259 259 259 261 264 270 274 275 276 274 272 270 269 269 271 272 271 268
281 281 280 282 280 279 280 279 274 274 273 273 270 267 268 268 267 263 264 265 268 268 267 272 270 271 269 275 272 273 269 269 271 274 271 267 276 271 266 268 268 266 265 270 268 266 269 267 268 268 263 255 257 253 254 253 254 254 255 257 258 259 258 260 259 259 257 256 256 256 257 258 258 259 257 261 270 270 268 268 267 265 265 263 264 264 265
289 286 283 276 275 276 275 272 274 273 269 268 268 265 266 264 266 266 264 266 261 259 261 265 268 277 275 273 270 269 271 277 274 272 269 267 274 272 269 266 266 262 268 269 269 271 267 264 266 266 253 255 254 253 252 253 254 254 255 256 257 258 258 259 259 258 257 257 256 256 256 256 257 256 257 259 262 261 259 261 262 262 262 262 262 262 262
283 278 274 272 275 274 274 267 274 270 267 266 265 263 264 264 264 260 257 261 262 266 267 272 271 273 270 273 273 273 271 275 279 268 268 271 268 266 272 268 266 266 268 266 268 267 268 267 262 255 253 252 253 253 252 252 253 253 253 255 256 257 257 258 258 258 258 258 257 256 255 256 255 255 256 255 256 258 258 259 259 260 260 261 260 259 260
275 272 271 270 269 274 271 265 268 266 263 263 268 261 264 263 263 262 267 264 265 266 264 264 268 271 267 266 267 270 276 268 275 273 269 272 267 269 267 265 266 265 265 265 265 265 264 266 254 251 252 250 251 251 252 252 253 252 253 253 255 255 255 256 256 257 257 257 257 256 255 255 255 255 255 255 256 257 258 258 258 259 259 259 259 258 257
273 271 270 267 267 270 266 262 260 260 263 266 263 261 264 265 266 266 260 258 263 263 265 263 262 267 266 264 272 270 272 268 268 271 271 268 265 264 267 265 265 264 264 263 262 263 268 261 250 250 251 250 250 251 251 252 253 253 252 252 253 254 254 255 255 256 256 257 257 256 255 255 254 255 255 255 255 255 256 257 258 258 258 259 258 257 257
271 269 265 268 267 267 263 259 260 260 259 256 256 257 260 259 256 259 257 258 258 261 262 263 266 268 268 267 269 268 265 267 268 270 267 262 266 266 267 265 263 264 262 262 262 263 260 250 250 251 250 250 250 250 251 251 252 252 252 252 253 253 254 254 254 255 255 256 256 255 255 255 254 254 254 254 254 255 255 256 256 256 257 256 256 256 256
271 270 267 265 265 266 265 260 258 258 257 256 255 258 258 258 258 256 256 256 257 260 261 264 265 267 268 266 264 264 261 262 266 264 264 268 266 260 262 264 264 265 263 263 262 249 246 250 250 250 250 250 249 249 250 251 251 251 252 252 252 253 253 253 253 254 255 255 255 255 255 254 254 254 253 253 253 254 254 255 255 255 256 255 255 254 254
266 263 264 261 260 260 258 259 261 259 257 256 258 258 258 258 254 252 254 256 256 257 259 262 264 266 264 264 267 267 267 266 263 265 264 259 263 263 262 258 260 262 256 245 248 246 249 249 251 250 249 249 249 249 250 250 251 251 252 252 252 253 253 253 254 254 254 254 254 254 254 254 254 254 253 253 252 253 254 255 255 255 255 255 254 254 254
263 260 256 259 260 259 261 262 263 259 258 256 256 254 255 255 254 251 254 253 255 255 261 266 268 268 264 264 261 260 261 260 266 266 260 260 262 259 260 258 261 262 256 246 248 249 250 250 250 249 249 249 250 250 250 250 251 251 252 253 253 254 254 254 254 254 254 254 254 253 254 253 253 253 252 251 252 253 253 253 253 253 253 254 254 254 254
258 253 248 246 252 255 256 264 263 262 258 254 253 252 252 253 252 253 255 253 253 257 264 264 266 264 262 260 259 258 261 262 265 263 262 260 254 256 261 263 257 248 250 251 251 251 251 251 249 248 249 250 250 251 251 251 251 252 253 253 253 254 254 254 254 254 254 254 254 254 254 254 254 254 254 254 254 253 252 252 252 252 252 252 252 252 252
257 253 250 251 251 251 251 252 251 252 252 252 251 252 253 252 252 253 255 253 253 262 265 262 263 264 264 263 262 260 262 260 260 260 258 252 248 253 254 251 249 249 250 250 250 251 251 251 251 250 250 250 250 251 251 252 252 252 253 253 253 253 253 254 254 254 254 254 254 254 254 254 255 255 255 254 253 252 251 250 251 251 251 251 251 251 251
Wind_Speed
15 15 15 15 14 12 10 10 9 6 6 2 2 2 2 3 3 2 1 7 13 11 10 7 7 7 7 4 3 3 1 3 4 8 3 4 4 2 4 6 4 4 2 1 3 7 4 9 9 5 8 10 14 3 9 8 12 9 1 3 2 4 2 1 5 2 2 2 1 1 0 1 3 7 2 4 11 10 5 1 5 8 2 1 1 2 12
16 16 16 15 14 13 12 11 10 8 8 3 2 2 1 1 1 4 3 3 10 11 12 11 12 9 6 4 3 3 3 4 3 5 7 8 4 7 4 0 5 4 2 0 3 6 4 5 11 7 4 6 3 8 8 13 8 11 9 11 8 5 4 8 3 1 2 2 2 1 0 1 5 5 5 4 1 5 3 5 1 1 8 10 8 13 10
17 16 15 15 15 14 13 12 11 9 9 7 4 3 2 2 2 3 4 1 6 7 5 8 8 9 11 8 11 5 4 5 9 9 8 4 3 3 5 8 3 4 2 1 0 4 9 1 5 6 2 7 2 4 8 12 7 8 3 2 10 8 8 11 10 13 12 9 9 11 11 12 4 1 4 9 13 9 6 8 5 8 5 9 6 11 14
18 18 17 16 15 15 14 13 12 11 9 10 3 3 1 3 3 3 3 1 3 5 2 3 3 8 8 10 9 8 8 1 5 9 5 10 5 8 2 2 5 4 4 5 4 3 3 8 2 4 4 3 1 3 4 11 8 11 4 4 8 2 3 11 14 15 16 15 12 2 8 7 7 10 15 12 13 14 11 5 5 12 14 13 10 14 19
20 18 18 17 17 17 16 15 14 12 10 11 6 2 2 2 4 5 4 1 4 5 3 4 5 4 7 8 5 13 12 7 1 9 4 7 8 3 7 3 6 5 8 8 9 10 8 4 4 7 5 1 1 2 6 5 10 12 4 3 3 2 3 10 14 18 18 16 17 8 15 13 16 19 14 15 14 14 16 14 16 16 11 17 15 19 15
22 19 19 19 17 17 16 16 15 14 12 14 6 4 4 6 4 3 4 4 5 7 11 9 7 7 5 4 4 6 11 10 7 4 8 5 11 7 1 7 11 10 14 10 9 9 12 10 11 10 8 6 3 5 0 4 7 4 2 5 8 5 8 9 11 15 16 15 14 6 7 11 14 19 18 16 16 14 17 19 21 16 15 22 20 16 18
22 21 19 19 19 18 17 16 16 15 14 12 6 5 4 3 2 2 2 2 2 3 2 3 6 9 9 3 4 5 7 10 11 5 3 6 4 13 10 12 14 14 10 10 10 9 6 9 11 9 6 9 4 5 4 6 0 4 4 1 1 2 9 6 8 14 15 16 17 6 11 7 5 9 15 17 18 20 22 23 25 27 22 17 18 20 23
23 21 20 20 19 18 18 17 17 16 15 11 7 7 6 6 7 3 1 1 0 1 1 1 2 5 7 7 9 7 9 9 3 4 7 4 7 9 17 13 11 14 13 13 14 13 14 12 11 10 13 9 6 8 10 2 2 3 6 2 2 3 6 10 7 5 9 14 14 10 8 8 9 4 3 6 12 19 24 24 25 22 20 15 18 23 24
24 23 22 22 21 21 19 18 18 17 13 7 9 6 6 1 2 0 4 2 3 2 1 1 1 2 3 7 9 9 11 11 7 6 4 12 7 9 17 15 13 9 14 15 17 13 14 15 18 12 15 14 12 10 3 9 3 2 1 1 1 3 4 4 1 7 11 14 14 14 0 2 5 5 5 10 14 17 18 18 12 12 16 20 18 18 22
24 24 23 22 21 21 21 20 19 19 16 5 5 9 3 2 1 2 2 5 4 4 2 2 2 8 7 6 7 6 7 8 4 7 5 7 9 5 10 14 13 12 13 17 18 18 16 16 16 17 13 14 5 7 6 8 9 6 6 3 4 4 3 5 5 10 12 15 13 7 2 0 6 11 18 22 20 16 8 10 12 17 19 16 14 22 23
26 24 23 24 23 22 22 21 20 21 12 9 8 4 6 7 6 4 1 2 4 8 5 4 8 6 5 5 5 7 6 4 3 11 3 5 11 12 9 8 8 8 12 7 7 8 12 12 12 4 3 8 9 4 5 7 6 8 8 4 4 6 7 7 4 8 9 16 10 1 4 14 16 17 24 19 19 15 12 15 21 23 15 14 18 19 17
25 25 25 24 23 23 23 22 22 23 16 8 6 4 3 4 3 3 5 9 7 4 9 10 10 4 8 4 4 3 6 8 8 3 10 4 1 5 0 5 10 8 2 1 4 7 7 5 6 1 3 6 9 11 10 10 8 5 10 9 7 10 9 8 5 5 9 7 4 5 16 17 18 14 9 11 11 13 21 26 24 20 16 14 16 18 21
27 26 25 25 24 24 23 23 24 23 20 8 9 8 4 5 4 4 3 5 8 8 8 10 8 7 3 2 5 6 5 4 4 5 4 6 6 3 2 2 4 3 5 8 5 2 2 5 8 12 13 11 10 10 14 16 16 11 8 12 10 9 10 5 5 6 2 3 8 10 14 6 5 4 9 6 9 18 16 17 21 21 19 18 21 26 29
28 27 26 26 25 24 24 23 23 23 24 13 8 8 6 6 6 4 4 3 9 7 5 7 4 7 12 12 11 11 8 9 9 5 7 4 9 10 7 4 4 2 1 0 4 2 3 3 8 4 7 6 7 10 13 16 19 17 15 12 14 14 8 6 7 7 9 8 13 17 4 9 8 8 8 14 12 9 12 15 20 21 17 16 21 26 27
29 26 26 26 27 25 26 25 23 23 23 21 7 7 8 8 7 5 2 3 6 3 8 11 10 11 9 6 5 9 9 8 7 10 5 6 8 6 7 5 2 4 5 3 1 1 4 2 5 5 4 8 10 8 6 9 6 20 20 18 15 13 13 7 11 7 11 11 11 7 8 12 16 22 14 5 9 6 7 9 16 16 13 21 23 26 28
28 26 26 26 26 24 23 23 25 25 23 24 9 8 8 9 6 4 4 4 4 9 10 13 7 3 7 9 9 10 8 4 5 3 6 2 5 4 3 1 1 2 2 3 3 3 2 7 7 7 6 8 6 4 6 4 3 5 19 20 18 17 16 12 13 6 8 11 10 10 10 12 13 20 8 6 7 11 7 6 15 18 21 19 19 22 22
29 27 26 28 26 25 26 25 24 24 22 21 9 8 7 10 9 8 5 2 6 10 3 7 9 6 3 3 3 6 5 8 5 7 7 7 6 5 1 2 0 3 6 4 3 4 5 7 5 9 6 2 4 4 3 6 4 1 3 12 19 17 14 12 14 13 10 10 11 12 6 10 11 9 2 8 9 12 11 10 11 25 17 9 15 17 15
29 27 28 28 26 26 26 25 26 26 23 22 10 8 6 9 9 8 5 6 6 8 8 5 5 8 11 8 6 1 3 1 1 1 2 3 1 1 2 1 2 3 5 8 4 7 10 9 10 8 11 4 2 1 9 3 4 5 8 12 11 12 10 13 21 16 16 17 12 6 7 3 8 7 4 6 13 14 12 14 20 3 4 11 14 17 19
28 28 29 29 27 27 27 26 25 24 23 24 11 7 7 8 11 9 5 4 6 11 5 7 6 6 2 1 2 3 3 7 7 5 2 1 5 6 6 4 4 3 4 6 6 8 7 8 4 5 8 5 3 7 1 6 6 3 5 6 6 10 9 9 14 17 16 14 16 15 8 7 8 2 12 10 7 9 15 12 1 4 1 8 16 16 18
30 31 29 28 27 26 26 26 25 25 25 24 13 7 5 9 9 14 11 8 5 10 4 4 7 13 6 8 6 7 3 2 2 5 6 8 2 4 2 8 3 3 0 2 9 4 8 11 8 3 9 9 7 1 6 9 4 8 4 11 13 12 10 10 13 9 11 10 12 11 16 4 14 8 4 4 11 14 12 3 3 2 7 9 8 13 14
27 25 25 26 27 28 27 26 26 25 25 25 17 8 4 7 10 10 10 9 5 8 10 6 4 10 7 9 12 10 9 11 5 4 5 6 3 4 4 2 4 5 7 6 8 7 3 6 7 6 2 2 3 2 3 4 11 5 7 10 10 10 10 5 8 9 10 13 13 11 11 13 8 16 14 11 20 7 6 7 6 3 4 7 8 9 12
28 28 30 29 25 23 25 25 25 25 24 24 17 7 7 5 8 9 8 8 8 10 0 1 0 3 5 5 6 7 10 10 9 4 4 6 3 8 4 2 1 1 1 1 1 1 1 2 2 2 6 6 2 9 5 6 3 4 8 2 7 7 13 6 11 9 13 11 13 8 1 4 10 16 13 11 16 2 4 4 6 7 7 5 4 11 9
29 29 28 26 26 25 23 25 24 22 23 24 16 8 9 7 5 6 8 7 3 2 1 0 0 3 3 5 6 7 7 4 2 2 6 9 7 2 6 5 5 2 1 3 3 2 4 4 9 3 4 5 7 7 8 5 5 3 8 1 4 8 4 11 6 4 5 7 1 5 5 4 6 5 5 4 4 4 3 1 2 5 5 9 9 7 7
29 29 27 27 27 27 27 25 25 25 25 24 16 8 7 7 8 6 2 2 4 5 3 4 3 7 10 12 8 4 3 3 7 8 3 2 6 3 1 3 1 1 0 3 3 2 2 1 5 2 5 4 4 5 8 11 9 4 4 8 1 3 6 7 3 6 4 8 5 13 7 5 2 6 5 2 1 2 2 4 3 6 2 5 3 3 7
30 28 27 27 25 25 24 25 24 23 23 23 16 8 5 5 8 11 9 6 5 6 6 2 11 9 5 3 1 2 8 8 7 9 8 8 9 9 7 3 3 4 4 3 2 2 1 3 3 3 9 3 5 9 6 9 10 7 10 10 8 8 5 1 3 4 4 6 9 10 5 6 5 2 2 4 7 6 3 2 4 4 3 1 2 1 4
29 27 26 25 26 25 24 24 25 23 22 24 16 9 8 8 7 8 6 2 1 3 7 8 4 1 0 2 4 4 3 6 6 6 7 7 8 10 8 0 2 2 1 2 2 4 3 4 4 6 6 8 4 8 9 10 9 1 5 9 7 4 2 5 4 5 7 10 13 11 10 7 3 5 5 4 3 3 4 4 5 5 4 2 1 1 2
29 28 27 27 28 26 24 23 22 23 24 22 13 9 9 5 9 12 10 7 5 3 2 6 1 0 0 4 2 2 1 4 4 6 6 7 10 8 5 4 4 1 2 3 2 3 4 5 6 8 5 5 2 3 3 4 4 7 5 4 3 3 8 5 2 7 10 10 8 2 6 8 4 4 7 7 9 6 4 1 0 1 2 3 3 5 5
28 26 24 25 25 24 25 25 24 24 23 23 11 8 8 8 9 10 9 9 11 4 3 1 1 3 1 1 2 3 3 5 7 7 6 7 7 6 6 7 5 5 4 4 5 4 4 7 7 5 3 2 6 8 5 4 1 4 5 6 6 8 7 5 6 7 10 7 7 7 7 8 9 8 6 8 8 8 6 6 5 3 3 2 2 3 3
26 26 25 25 25 24 24 23 24 22 20 13 8 6 3 1 2 7 9 6 6 4 4 2 1 3 2 4 2 1 1 5 7 8 7 6 5 6 7 8 7 6 4 3 4 5 6 7 4 5 3 4 2 5 2 8 5 10 10 9 6 6 6 10 11 10 11 11 9 6 5 8 9 5 5 5 5 8 9 7 6 7 7 5 4 4 7
25 24 26 25 23 21 21 21 21 21 17 9 7 3 4 3 5 7 8 7 6 3 3 3 1 4 1 2 3 1 2 4 5 4 5 4 5 7 8 7 7 8 5 4 3 7 5 6 3 2 2 2 3 2 5 2 7 6 5 9 8 7 7 10 9 10 12 8 4 6 7 8 4 4 4 3 4 7 8 10 9 7 5 5 5 3 2
25 23 21 21 20 21 23 24 19 19 16 9 7 4 5 5 7 9 11 7 5 5 2 3 3 1 4 2 1 4 4 4 5 6 6 7 7 8 5 5 4 5 5 6 4 6 3 4 3 4 2 5 5 4 5 7 10 3 6 8 8 7 8 12 11 11 11 4 1 1 1 3 3 4 6 4 5 7 5 1 1 4 4 4 3 3 4
23 25 23 23 23 23 22 20 22 17 11 10 9 6 5 3 5 12 14 9 8 4 4 5 1 1 2 2 2 1 0 2 1 1 1 3 4 5 4 8 6 8 7 6 6 5 5 6 10 6 5 7 7 2 4 9 13 12 7 10 4 7 9 10 8 3 1 2 4 0 3 5 3 6 6 2 4 3 4 2 3 4 5 4 3 2 1
24 25 24 25 25 24 23 20 19 13 9 6 5 6 1 3 18 20 13 10 5 2 2 4 4 2 0 5 2 2 4 3 2 1 3 2 3 2 2 4 4 3 7 6 3 5 3 6 7 10 9 5 4 3 6 12 11 8 13 8 6 5 8 4 2 2 3 5 5 8 9 7 7 10 5 0 4 6 6 7 5 6 6 5 4 3 3
22 21 21 22 22 21 20 19 17 17 8 6 5 4 1 7 17 21 13 7 3 3 3 4 3 3 4 3 2 2 2 5 4 4 2 2 2 3 4 3 5 4 5 9 5 4 1 1 4 4 1 4 3 4 7 7 8 13 14 10 6 4 3 3 2 3 5 6 3 3 3 3 2 1 2 3 3 3 5 7 8 7 5 5 5 4 4
19 20 22 21 18 18 19 15 8 5 5 2 1 1 1 14 18 21 18 8 6 1 1 0 2 3 0 2 1 4 1 3 2 5 4 4 1 4 2 2 3 6 4 5 2 5 7 7 5 4 6 3 4 6 4 6 9 10 10 9 5 1 2 1 6 9 6 4 3 2 1 2 3 2 4 5 5 6 9 7 7 9 7 5 5 3 3
20 18 14 15 17 13 9 10 4 5 2 4 5 6 12 16 19 9 5 4 4 4 4 3 4 4 5 4 2 4 1 1 1 1 2 1 2 1 1 3 5 6 2 4 7 6 7 3 3 7 5 7 9 6 6 7 12 11 9 10 9 8 7 10 7 6 3 2 1 1 2 3 5 5 3 5 4 3 5 7 5 5 8 8 7 5 3
22 22 19 14 8 6 4 3 2 3 5 6 9 15 14 14 6 3 3 3 2 2 5 5 4 6 8 6 0 3 3 0 1 2 0 2 3 0 2 2 8 3 3 1 4 7 7 3 6 8 8 10 8 7 7 6 4 6 6 6 4 3 5 7 3 5 6 3 1 2 2 2 2 2 5 7 8 6 5 7 9 10 11 11 8 7 9
18 15 10 5 5 4 2 1 3 5 15 23 17 7 6 4 5 3 2 2 1 3 2 3 5 2 1 5 3 4 4 3 2 3 1 2 0 3 2 3 5 3 6 3 6 5 1 1 5 9 10 9 6 7 11 9 7 6 7 8 10 10 10 10 5 2 6 1 3 4 2 2 5 5 7 8 8 11 12 8 6 5 3 5 7 6 6
14 5 5 2 4 2 4 4 6 17 13 5 5 2 1 0 4 2 2 2 2 1 2 4 5 4 6 4 3 2 4 4 2 0 1 3 2 3 2 1 1 2 3 1 7 6 4 3 2 3 9 6 7 4 8 8 8 7 7 8 10 10 9 9 9 6 4 3 4 5 4 8 12 12 8 7 5 4 2 2 5 5 5 5 6 5 5
4 6 4 4 3 2 1 11 24 13 5 4 2 2 2 1 3 2 1 3 1 1 2 4 3 4 7 9 7 5 2 3 3 3 4 3 1 2 1 2 4 1 4 4 5 4 5 6 4 4 8 8 4 7 8 9 7 8 9 11 12 10 10 9 7 5 6 10 5 5 8 8 7 3 6 7 6 7 5 4 3 3 4 5 5 8 8
4 5 5 4 3 3 2 3 6 5 3 3 2 2 2 1 0 0 2 1 1 3 0 2 3 1 1 2 3 8 3 2 0 3 2 2 2 3 1 2 1 2 3 3 2 3 1 1 4 6 6 3 6 9 10 8 8 10 10 11 10 10 12 10 7 7 10 10 9 8 8 9 9 9 4 2 6 4 3 3 3 3 3 5 6 5 5
3 5 5 7 5 6 6 4 3 3 2 0 3 3 1 1 2 2 1 4 5 2 2 2 3 5 5 9 7 3 3 1 2 1 2 2 3 4 3 1 1 3 4 3 2 1 1 4 3 4 3 6 7 9 11 10 11 14 14 12 11 12 12 11 12 8 6 7 7 7 7 8 9 8 9 7 1 1 2 3 4 3 4 4 5 6 6
21 14 9 6 3 2 2 2 1 2 2 1 2 2 1 3 2 4 2 1 2 2 2 1 0 1 1 2 1 1 4 1 2 1 2 3 1 1 1 1 1 1 5 1 2 1 2 3 5 1 5 7 9 10 10 10 12 10 8 10 11 10 11 11 10 9 7 7 8 8 8 8 8 8 8 7 2 7 7 6 4 4 4 5 6 5 6
7 5 6 1 3 1 2 4 1 3 0 0 2 5 3 3 1 2 2 3 1 1 3 7 5 7 5 3 5 1 1 2 1 1 1 1 2 2 2 3 4 3 2 1 1 3 5 2 0 1 4 6 7 11 13 13 11 9 10 13 12 11 11 11 11 11 10 9 8 8 7 7 6 8 9 9 10 6 5 6 4 5 5 7 7 6 4
4 3 2 2 2 1 3 1 2 2 3 3 3 2 4 7 5 5 6 1 1 3 1 2 2 6 4 2 2 1 2 2 1 4 3 3 0 2 2 4 2 2 2 3 1 1 3 4 2 2 7 10 11 12 13 11 9 11 13 13 11 12 13 13 12 10 9 9 9 9 8 9 8 7 9 9 8 7 6 5 3 4 6 8 8 7 4
4 3 2 4 4 1 2 1 1 1 1 1 3 5 7 5 8 6 2 2 2 3 4 2 3 1 2 1 5 4 1 2 2 2 2 1 2 3 3 0 2 1 1 1 2 6 8 1 4 6 9 9 11 13 11 9 11 12 10 9 12 14 12 11 10 10 9 9 9 7 6 7 7 7 8 7 10 10 8 6 6 4 4 8 8 7 4
3 2 2 1 3 0 2 3 3 1 0 1 2 3 1 4 3 5 2 3 1 1 1 2 1 1 2 2 1 2 2 0 2 2 3 1 2 1 2 1 2 2 2 4 5 6 1 3 5 7 9 11 12 11 9 11 10 9 9 10 11 11 11 11 10 10 10 10 8 7 6 6 6 6 5 7 8 9 10 8 8 7 7 8 7 6 7
4 2 2 2 3 2 3 0 2 4 4 3 2 2 1 1 4 4 4 3 3 2 0 1 3 1 1 2 3 3 2 1 1 4 2 2 2 2 0 0 2 3 1 3 4 1 3 5 6 8 9 8 8 9 11 12 10 11 12 12 10 10 11 11 10 10 10 9 8 6 6 5 5 5 6 5 7 9 8 8 8 6 7 8 8 9 8
5 2 2 3 1 2 2 2 5 5 3 4 4 6 5 6 4 1 4 2 3 2 2 1 1 1 2 0 3 2 1 1 2 3 2 2 1 3 2 3 1 4 1 2 2 2 3 5 7 7 8 8 7 9 10 8 11 11 10 9 10 10 9 8 9 9 8 7 6 6 5 5 4 4 4 5 8 8 7 7 9 9 8 7 8 10 10
6 5 7 5 4 4 2 2 5 4 3 3 4 5 5 4 4 2 3 3 3 3 2 4 4 0 0 1 0 0 1 1 1 1 3 2 2 1 2 1 3 2 1 2 2 3 5 5 6 9 9 7 9 10 9 9 9 7 8 10 9 8 7 8 8 7 7 6 6 5 5 5 4 5 6 7 5 5 7 10 10 10 10 10 9 9 10
4 7 4 3 1 1 0 7 7 7 5 2 3 3 4 2 2 3 5 4 5 1 2 3 2 2 1 3 2 1 2 1 2 0 1 2 0 2 3 2 0 1 1 2 3 5 5 5 7 7 8 11 9 9 9 8 8 10 11 9 9 8 7 7 6 5 5 5 5 5 5 5 3 3 3 3 4 7 10 11 11 9 9 9 10 10 10
4 5 1 2 4 3 3 3 7 7 4 3 2 2 2 0 3 4 5 4 3 3 5 2 3 2 1 3 3 1 1 1 1 1 1 1 1 2 2 1 0 1 2 4 5 5 5 6 7 8 9 10 8 8 8 10 11 9 7 7 8 8 7 6 5 4 4 5 6 6 6 6 6 5 6 7 8 9 10 9 8 9 8 8 9 10 10
Wind_Direction
243 246 246 243 243 244 244 248 236 227 121 76 225 110 139 187 221 260 231 198 170 178 203 187 193 212 227 242 268 72 23 165 182 169 187 199 174 195 196 211 176 242 187 199 167 180 206 175 202 203 221 240 214 216 171 147 162 131 9 34 340 112 107 142 279 314 303 314 307 51 62 133 276 272 223 123 206 195 177 172 185 162 155 198 251 211 258
238 238 241 240 241 240 234 234 233 225 163 159 143 111 220 183 126 315 295 257 211 182 197 200 195 214 241 212 223 186 213 152 156 188 181 181 175 210 209 112 211 252 130 172 198 189 231 217 205 239 222 259 279 140 176 157 175 161 202 175 187 146 247 177 185 355 338 341 345 315 352 27 218 226 203 195 78 171 167 98 83 143 216 195 149 238 249
233 232 233 236 238 238 235 231 232 228 183 146 156 165 176 156 164 245 299 299 248 240 182 215 207 213 219 203 216 211 218 199 184 180 194 179 166 133 231 214 154 208 121 184 294 211 209 299 245 232 196 239 58 281 172 188 192 223 245 293 170 187 168 171 191 210 220 224 204 218 222 207 214 265 206 188 190 170 109 226 175 221 242 207 207 244 253
233 231 230 228 232 233 230 228 227 222 203 162 128 196 112 148 221 201 267 305 240 274 328 27 250 224 221 225 225 218 230 224 218 180 214 180 196 199 151 149 146 195 178 217 219 242 244 209 259 193 252 264 320 245 196 189 203 227 156 142 160 194 215 195 193 202 219 224 229 230 85 79 182 220 202 201 201 190 196 180 195 213 233 234 226 235 253
229 230 229 230 230 228 226 224 219 216 199 175 152 215 162 234 185 172 207 161 236 252 260 208 194 236 185 225 163 219 222 210 243 190 230 186 195 222 209 166 167 202 204 218 235 223 234 256 277 237 240 270 246 293 153 243 241 215 182 179 109 73 216 225 219 218 222 223 230 196 166 182 204 207 211 203 190 186 189 197 217 213 224 249 236 232 241
228 226 226 226 228 228 225 222 218 212 207 174 154 199 170 219 231 180 218 156 194 191 236 205 230 231 253 246 205 216 211 215 223 172 215 167 196 196 254 209 203 186 194 192 223 200 221 211 232 251 251 270 297 304 267 181 225 201 260 189 180 172 226 224 225 239 242 241 245 172 194 196 199 206 204 197 192 183 194 213 225 217 210 230 238 230 230
235 227 228 228 222 225 224 220 218 210 201 170 176 198 202 211 355 217 304 144 268 175 91 141 200 230 223 264 246 227 203 213 211 181 180 208 215 197 228 209 211 214 199 195 222 203 204 224 225 231 241 235 259 273 307 260 251 153 218 243 230 155 235 230 221 237 242 248 250 200 195 225 231 215 211 201 184 192 199 212 218 220 226 231 244 252 242
228 229 225 230 230 224 223 218 216 213 195 162 189 207 195 192 197 234 93 54 295 124 73 128 158 227 212 225 220 238 240 237 211 201 176 205 212 190 222 224 207 212 210 206 219 211 211 207 216 216 227 245 199 243 223 241 358 159 197 173 318 171 246 229 237 258 256 257 258 247 210 220 235 253 259 219 202 202 206 215 222 226 239 241 245 250 259
223 222 220 222 222 221 221 219 215 213 184 160 200 220 193 15 109 96 120 212 255 238 201 191 173 228 187 218 238 239 236 243 229 235 200 214 204 191 215 224 229 210 214 217 226 223 219 219 227 208 193 220 209 200 262 204 172 97 118 122 318 154 273 19 335 253 253 254 253 252 159 219 247 257 226 213 210 216 218 221 220 212 222 229 237 252 256
222 222 220 220 222 221 220 218 215 215 189 174 191 226 155 198 221 62 140 231 198 213 210 182 172 238 214 215 225 235 242 240 226 277 217 239 255 236 221 220 222 225 216 221 222 227 229 228 228 230 217 226 251 195 202 154 164 179 185 140 149 174 161 218 205 234 240 248 246 267 113 267 262 239 231 220 219 220 225 235 235 224 215 220 219 236 242
220 220 219 217 217 217 218 217 215 212 195 193 196 195 142 180 197 192 225 212 181 189 211 225 202 232 241 205 237 233 252 257 200 230 248 195 229 220 210 229 240 245 233 245 250 254 255 251 252 267 204 224 224 163 172 190 177 162 163 159 179 176 193 222 170 233 238 248 247 101 239 236 235 232 231 220 222 210 212 226 225 228 208 218 221 240 250
217 217 217 217 216 215 214 214 215 213 205 189 179 194 164 140 129 148 195 229 235 167 196 224 214 224 233 244 234 234 234 237 244 199 239 253 212 59 56 241 218 228 177 279 11 354 330 308 295 297 247 234 229 226 209 202 218 200 161 164 175 198 197 218 169 213 232 239 99 216 232 241 236 249 260 245 233 213 216 231 233 233 223 235 258 260 257
215 215 216 215 216 213 213 215 214 216 210 167 178 203 170 131 129 155 157 208 233 210 214 226 228 247 249 284 289 264 250 264 268 278 276 289 296 276 175 204 199 256 12 360 351 31 322 275 259 248 242 240 237 237 232 223 222 203 200 182 174 191 197 184 210 204 233 161 200 233 233 249 348 242 235 214 205 219 221 242 246 238 225 212 229 240 245
215 214 212 213 213 212 213 213 216 216 214 187 180 191 172 160 167 178 174 169 234 229 228 268 216 228 233 231 237 259 280 281 283 265 259 231 249 260 256 214 226 162 111 327 319 304 270 206 257 223 235 228 243 236 229 230 226 216 206 201 193 193 197 186 233 177 226 204 221 235 309 317 284 277 235 198 199 187 181 227 245 233 222 212 224 236 244
218 214 213 213 213 211 210 211 213 216 217 210 168 180 178 181 180 169 164 187 240 226 183 225 214 223 230 237 210 243 247 253 263 265 233 241 245 229 230 237 178 124 154 140 245 220 232 255 244 221 199 195 212 234 162 231 207 221 215 209 201 191 201 180 217 217 203 223 237 240 232 241 250 241 249 109 207 179 181 203 262 260 212 212 216 232 240
215 212 215 212 211 209 208 213 213 214 214 216 184 189 186 182 173 160 180 181 177 243 221 224 223 162 212 224 204 208 233 226 218 249 258 257 240 287 282 135 273 112 96 191 174 214 181 231 238 236 227 213 221 226 220 137 213 216 205 211 205 204 209 203 212 211 187 214 230 225 227 232 234 255 241 166 158 143 140 160 242 254 237 213 211 228 238
212 212 213 212 208 208 209 210 211 214 214 209 200 190 193 177 181 175 167 188 198 239 73 187 195 196 197 241 189 220 210 232 199 234 254 245 234 226 263 49 10 160 183 177 209 201 224 237 255 265 270 103 195 227 164 187 167 209 206 204 208 203 208 211 224 217 214 218 228 229 209 233 236 246 186 192 141 127 115 204 244 249 250 188 205 217 230
211 207 213 213 211 209 209 210 210 212 211 208 185 194 200 181 182 165 189 186 220 250 222 165 157 181 212 213 219 227 95 60 88 65 219 242 324 281 242 132 174 259 182 226 163 213 229 241 245 248 258 193 196 212 227 142 227 164 165 179 183 201 211 207 220 219 225 224 239 260 255 253 255 235 182 148 151 133 183 212 235 245 119 183 178 197 215
210 210 212 209 209 210 209 208 210 209 208 209 187 182 211 183 179 180 184 197 202 238 218 176 191 219 220 74 171 190 197 197 174 180 201 270 242 215 171 223 168 194 183 197 199 230 237 245 218 236 253 238 173 229 221 209 201 157 145 146 213 205 208 216 216 221 223 222 227 233 256 223 201 247 157 159 121 206 214 232 193 115 139 162 184 189 211
210 209 209 209 209 209 210 208 208 212 211 206 187 196 165 177 183 179 179 193 210 248 221 158 186 212 210 217 219 222 237 334 174 158 184 219 242 72 323 226 295 109 54 147 226 195 228 237 235 247 240 241 235 174 257 243 241 204 184 188 193 184 199 188 205 216 228 227 236 233 233 178 202 150 85 241 202 227 219 165 241 175 187 176 193 196 210
208 207 210 212 210 208 207 209 208 210 210 209 188 180 188 188 185 193 191 186 208 244 256 187 181 208 203 213 218 214 207 214 196 181 215 203 208 115 205 251 181 168 187 181 213 208 202 239 217 228 205 223 291 307 256 282 236 243 176 186 212 168 223 208 225 188 214 208 217 221 219 218 181 151 205 180 220 210 162 155 228 231 186 183 192 214 215
205 207 208 206 208 208 211 209 208 209 209 208 185 165 198 181 176 183 191 193 214 224 266 149 163 217 226 221 211 202 209 217 223 189 226 269 244 207 214 108 190 157 251 27 20 317 265 225 227 190 218 247 205 230 304 316 266 329 337 331 234 174 211 184 220 183 205 219 230 234 316 174 178 202 224 210 215 179 189 181 200 182 228 200 194 214 217
203 204 206 203 204 208 209 208 206 207 209 208 195 171 188 147 166 168 149 201 231 278 102 236 27 287 275 244 222 208 210 192 190 217 186 220 261 259 209 195 242 209 223 133 175 235 285 251 231 172 223 226 228 269 258 203 267 286 281 236 277 338 338 343 345 288 296 286 179 329 333 333 293 301 27 356 319 347 18 274 278 253 210 181 192 212 190
204 202 203 205 205 203 207 208 206 207 208 207 196 162 177 162 151 118 137 197 184 239 234 183 185 231 225 249 253 197 157 172 206 216 189 173 219 259 261 239 180 40 254 203 152 150 235 265 271 293 242 218 118 206 256 268 236 192 220 272 234 247 45 21 311 314 252 252 217 225 235 264 279 285 316 346 319 306 345 311 288 305 271 209 221 195 182
203 201 203 206 202 203 204 207 207 205 206 205 190 171 137 155 165 160 150 174 180 184 230 183 212 227 218 221 122 164 216 209 194 205 192 199 219 223 216 205 189 179 229 181 94 82 171 266 290 269 248 240 159 255 199 243 267 150 247 253 268 280 152 162 241 284 256 284 313 309 279 234 237 224 286 316 332 340 353 294 298 309 311 299 259 147 151
205 201 198 201 205 201 201 205 206 206 206 204 187 159 170 174 166 158 154 133 106 166 210 243 260 346 12 98 214 217 197 180 187 185 175 187 214 232 248 359 314 40 84 95 134 237 237 234 246 270 289 289 195 233 236 204 235 274 187 248 198 187 64 263 222 268 282 291 282 265 281 295 272 185 178 192 225 287 308 337 348 344 342 344 8 360 201
201 199 196 203 205 201 199 202 203 205 206 204 192 171 170 161 165 172 172 157 137 276 213 234 206 309 25 206 233 86 121 165 171 181 191 196 207 223 226 234 235 261 259 289 184 205 214 241 236 252 219 247 340 283 307 327 196 228 231 228 103 98 245 219 216 263 263 257 257 86 318 293 300 272 214 200 193 180 227 279 342 339 350 328 353 17 18
202 195 195 200 202 203 201 201 202 205 205 204 187 161 157 161 186 186 172 161 180 191 154 179 75 245 154 261 260 169 171 155 169 177 190 203 204 202 209 218 216 231 205 219 246 191 210 219 229 227 246 304 288 261 181 240 228 302 255 238 171 194 222 167 205 218 256 248 235 213 215 255 251 247 225 208 179 161 171 207 212 211 208 220 138 82 21
198 193 194 197 200 200 202 201 201 200 200 188 120 128 71 130 165 196 188 187 140 109 112 156 20 26 185 231 24 30 162 158 166 185 192 196 193 196 205 206 206 214 210 208 234 254 232 238 228 218 182 215 154 264 212 242 211 236 230 230 209 219 199 201 212 224 248 263 267 202 200 232 264 249 214 214 202 180 202 207 191 193 182 194 191 189 167
199 196 195 195 195 201 205 203 199 199 184 117 99 99 153 225 199 197 197 179 166 119 106 129 131 252 327 11 294 248 192 193 186 170 184 175 192 200 205 197 218 213 211 215 204 232 209 240 224 240 251 115 196 245 253 296 262 250 247 245 230 222 217 230 216 209 240 235 204 204 220 255 297 303 291 258 203 195 204 215 200 186 188 176 190 210 231
189 184 184 189 192 197 201 200 194 186 134 146 131 105 169 205 197 184 176 160 149 114 169 95 186 39 357 264 147 235 187 159 174 193 205 203 208 203 203 180 217 185 212 225 220 244 239 240 184 242 203 186 184 223 202 250 260 254 246 240 233 223 218 231 224 222 236 198 128 93 48 277 303 334 297 249 219 201 222 232 123 165 169 159 190 208 184
191 184 185 187 190 193 196 196 198 172 141 161 172 184 174 204 168 158 164 152 135 126 152 129 166 31 236 302 250 251 127 222 110 137 244 157 230 185 188 177 204 185 203 219 225 241 221 232 241 226 207 200 185 251 191 236 247 253 262 266 259 229 226 235 243 241 21 160 124 323 298 279 221 202 237 268 196 194 197 145 125 128 137 127 89 71 98
193 191 187 186 187 187 189 190 184 143 160 146 46 25 317 111 151 150 145 136 103 146 127 96 159 180 167 242 326 302 150 66 35 101 279 177 230 128 193 190 210 216 208 223 213 232 208 211 208 226 223 155 183 202 219 232 238 246 255 249 240 242 250 277 275 218 185 199 180 207 234 235 235 232 232 249 176 171 151 137 141 122 122 133 133 126 106
187 182 184 187 188 185 184 188 178 150 137 124 166 217 261 166 155 148 135 121 109 99 93 134 159 127 233 325 55 278 133 152 199 148 258 235 176 112 210 164 181 204 192 203 221 228 288 94 220 257 345 241 200 216 232 225 231 243 248 244 230 235 234 212 223 222 227 213 213 210 243 273 311 46 84 125 130 116 119 126 136 138 158 156 177 174 153
180 182 186 190 189 186 182 168 129 101 145 135 47 273 211 165 156 152 151 152 116 197 126 315 118 113 116 349 178 266 187 96 186 189 185 273 135 195 184 140 202 196 213 148 245 213 224 219 163 196 215 176 206 233 242 244 241 241 245 248 239 146 42 300 253 218 219 206 189 240 268 199 154 167 183 185 176 162 148 162 168 152 153 187 176 166 171
175 175 181 186 180 156 85 68 97 104 124 176 188 160 156 164 160 137 91 68 121 155 141 184 117 183 147 170 200 262 97 57 226 108 221 184 349 243 189 210 255 220 200 178 216 195 220 171 120 237 207 226 230 227 229 213 234 242 241 240 227 180 212 215 225 195 181 140 195 314 258 229 216 206 187 191 180 178 166 157 179 179 175 170 178 167 160
172 172 153 112 81 49 70 114 117 161 180 145 139 120 111 97 53 37 27 38 358 98 142 146 130 197 166 202 200 273 89 214 159 68 203 128 214 146 129 210 233 248 43 306 225 204 230 162 210 230 215 230 239 221 223 242 273 290 305 314 313 270 283 316 314 138 136 139 149 285 321 249 234 175 171 182 186 182 159 186 185 178 187 189 173 175 187
159 123 97 109 101 88 81 190 174 194 139 132 123 90 342 15 131 128 87 58 269 71 324 89 175 202 52 105 199 238 83 260 59 151 274 230 75 293 207 205 227 219 260 222 224 170 92 221 211 221 240 232 240 63 25 21 19 13 9 1 354 348 343 329 326 142 133 135 264 253 263 289 264 237 196 203 185 189 204 200 191 202 183 169 180 165 137
128 111 62 68 116 135 170 200 173 142 115 56 25 79 34 348 81 46 168 141 83 178 251 128 200 150 135 159 259 306 164 164 94 89 145 269 118 285 111 214 239 114 274 250 273 138 231 231 282 217 239 221 213 62 358 24 20 24 5 357 349 341 344 330 1 352 288 272 317 295 235 214 211 220 215 214 217 228 220 184 181 193 182 156 150 154 150
102 109 130 105 120 164 121 150 144 129 120 112 336 99 99 311 126 198 90 75 80 289 133 218 167 162 181 177 175 253 230 106 184 239 189 302 146 188 254 70 266 130 252 231 253 111 182 223 207 202 237 217 159 33 360 4 2 360 3 348 348 343 346 336 326 334 302 282 278 307 342 338 329 280 206 206 198 202 235 240 213 176 169 162 156 159 171
103 92 99 133 170 99 83 55 15 43 73 102 80 14 93 45 333 102 111 115 148 228 256 157 91 118 156 112 141 217 282 90 181 131 131 192 242 83 66 233 239 83 246 246 280 46 347 115 198 207 218 40 358 342 345 344 357 345 347 348 349 342 342 334 332 350 354 341 345 348 347 342 328 329 324 249 201 217 210 195 175 161 135 137 150 140 99
139 114 136 102 108 108 87 38 39 73 31 12 130 158 142 130 45 24 115 146 212 185 250 153 174 167 209 180 192 151 278 182 134 122 132 250 246 152 223 221 7 183 249 217 112 86 35 265 216 239 47 4 355 352 353 346 346 345 345 353 348 346 344 344 338 348 3 348 323 326 336 340 337 334 334 327 319 125 106 126 130 111 121 100 96 108 115
101 102 89 88 62 44 109 74 266 116 146 185 111 118 122 111 165 150 211 291 327 110 249 36 204 111 327 67 351 203 181 180 152 201 101 221 293 46 177 220 136 246 229 358 80 199 224 248 253 289 22 339 0 346 348 337 330 326 333 341 342 342 341 338 343 334 341 348 340 338 338 340 338 335 334 338 30 73 36 47 77 102 101 104 102 99 110
85 60 60 25 80 280 99 157 204 98 189 42 152 159 174 114 300 45 54 255 209 270 221 142 199 145 199 195 152 141 20 343 158 79 311 293 86 219 186 222 215 241 59 23 166 200 223 214 214 1 344 328 329 347 338 336 331 333 332 344 340 345 345 345 346 354 349 352 349 346 352 0 349 353 7 18 20 55 72 60 40 73 90 95 92 85 83
87 44 67 59 71 203 103 202 7 127 180 215 153 164 157 169 176 169 180 253 94 195 344 21 116 162 178 244 41 305 154 205 278 122 230 140 111 221 162 245 232 34 133 214 241 305 341 246 95 339 358 340 334 331 332 325 336 337 331 326 339 346 348 350 350 346 345 349 342 349 5 0 2 12 21 20 15 19 36 43 14 73 87 94 94 85 56
89 139 117 121 134 133 131 134 53 68 272 131 197 192 155 188 161 179 76 353 105 26 64 40 358 123 180 250 148 203 130 116 73 224 184 125 140 232 226 328 64 145 283 63 204 220 235 96 21 340 344 328 326 322 319 317 330 334 343 340 334 338 340 343 342 344 342 342 341 347 358 11 7 14 23 11 14 16 24 21 20 47 87 92 86 92 81
76 18 93 115 101 226 89 133 218 178 181 40 13 350 13 97 83 93 61 8 84 296 321 241 165 205 158 222 148 332 23 55 164 229 93 83 206 253 22 97 224 186 202 229 227 236 245 42 321 339 329 330 322 319 313 320 331 339 329 326 325 332 338 341 337 344 341 341 338 353 8 12 359 349 21 26 12 13 4 13 31 42 67 85 79 78 77
112 170 105 100 155 151 117 106 122 101 33 60 334 341 274 176 88 47 359 357 304 276 320 72 91 92 324 297 80 179 221 211 148 285 165 223 33 48 73 229 257 257 198 208 227 38 299 315 328 322 322 313 310 306 320 324 328 332 330 327 326 326 336 338 339 336 340 337 341 349 9 11 14 11 29 27 36 23 12 16 36 48 67 73 71 68 75
84 74 96 125 103 89 60 101 114 64 14 353 17 36 25 62 77 29 327 334 1 331 316 102 170 117 194 218 135 149 231 242 132 235 48 34 143 221 162 234 212 252 281 151 247 244 293 324 314 312 302 305 301 310 316 317 321 321 326 322 320 320 320 327 332 334 334 334 342 353 7 4 358 4 26 37 53 33 11 18 33 42 38 49 72 86 80
54 29 23 43 75 31 29 102 69 72 7 31 22 32 3 55 64 29 7 351 329 325 244 214 246 144 214 103 111 336 257 260 210 338 76 188 208 297 61 286 223 212 253 194 259 285 307 317 319 313 315 298 311 321 318 313 314 310 310 320 322 320 323 326 330 340 342 344 358 16 12 25 24 32 40 58 68 62 45 40 36 37 36 31 38 66 74
50 92 116 253 298 198 285 149 158 159 161 25 29 20 12 34 14 318 357 345 311 293 120 128 158 112 60 31 64 49 257 181 74 135 201 210 8 126 207 230 290 83 301 345 310 316 316 318 322 313 313 319 318 320 312 303 306 313 319 328 332 333 332 334 330 338 348 356 9 24 35 31 29 43 55 66 69 75 66 49 37 35 43 43 43 51 64
52 65 22 45 33 29 19 81 45 57 68 94 78 6 351 39 338 300 319 308 289 147 155 167 101 104 109 190 213 194 322 41 41 90 336 282 134 172 208 198 233 9 339 320 312 321 328 323 319 314 314 315 316 306 299 313 317 317 326 334 338 341 343 347 345 339 354 21 22 26 29 30 33 44 58 65 58 55 55 51 35 39 50 57 56 53 64